Date,TemperatureHighF,TemperatureAvgF,TemperatureLowF,DewpointHighF,DewpointAvgF,DewpointLowF,HumidityHigh,HumidityAvg,HumidityLow,PressureMaxIn,PressureMinIn,WindSpeedMaxMPH,WindSpeedAvgMPH,GustSpeedMaxMPH,PrecipitationSumIn
2013-1-1,30,30,30,28,28,28,94,94,94,30.17,30.17,1,1,6,0.00
2013-1-2,24,23,23,18,17,16,80,76,72,30.28,30.27,4,0,4,0.01
2013-1-3,40,30,22,28,23,18,92,76,60,30.45,30.26,16,1,16,0.06
2013-1-4,40,31,24,26,23,20,85,73,52,30.48,30.35,16,1,16,0.00
2013-1-5,44,38,29,32,27,21,75,66,57,30.36,30.13,17,2,17,0.00
2013-1-6,41,32,22,33,25,18,85,74,62,30.45,30.12,19,3,19,0.00
2013-1-7,45,33,22,30,25,18,87,74,54,30.45,30.19,16,1,16,0.00
2013-1-8,53,41,28,38,30,23,84,65,43,30.25,30.12,12,1,12,0.00
2013-1-9,55,48,42,44,38,33,87,68,48,30.51,30.19,12,1,12,0.00
2013-1-10,56,46,41,56,42,32,97,86,65,30.49,29.80,12,2,12,0.74
2013-1-11,63,55,49,55,49,46,97,82,63,29.90,29.78,20,4,20,0.01
2013-1-12,56,46,30,50,40,28,92,81,58,29.99,29.82,16,2,16,0.63
2013-1-13,30,24,18,28,20,14,92,85,76,30.44,29.95,17,2,17,0.00
2013-1-14,26,20,16,17,14,12,87,78,65,30.58,30.43,12,1,12,0.00
2013-1-15,28,23,16,21,18,14,88,80,67,30.49,30.19,11,1,11,0.00
2013-1-16,42,30,19,25,21,16,90,71,49,30.22,30.07,12,1,12,0.00
2013-1-17,39,33,25,30,25,20,92,73,57,30.54,30.16,16,2,16,0.00
2013-1-18,54,38,23,31,26,19,86,62,40,30.55,30.16,21,3,21,0.00
2013-1-19,64,51,41,40,34,29,65,54,40,30.17,29.92,25,4,25,0.00
2013-1-20,46,31,24,33,18,11,78,58,46,30.40,30.15,17,2,17,0.00
2013-1-21,24,19,14,14,6,0,75,56,38,30.47,30.35,23,3,23,0.00
2013-1-22,17,14,12,11,6,0,84,70,56,30.56,30.44,7,0,7,0.00
2013-1-23,41,26,13,26,18,10,87,70,53,30.45,30.20,13,1,13,0.01
2013-1-24,27,20,15,18,9,2,73,61,55,30.67,30.30,15,3,16,0.00
2013-1-25,43,33,26,26,19,12,66,57,49,30.32,30.15,15,1,15,0.00
2013-1-26,38,31,23,24,18,14,75,60,44,30.45,30.27,10,1,10,0.00
2013-1-27,51,37,30,49,33,20,100,86,65,30.36,29.98,19,3,19,0.07
2013-1-28,73,62,51,63,58,49,95,87,70,29.99,29.85,18,3,18,0.00
2013-1-29,67,61,52,61,58,51,96,89,77,29.85,29.44,23,4,23,1.29
2013-1-30,52,38,26,51,34,17,96,83,67,29.97,29.37,32,5,32,0.16
2013-1-31,32,24,11,24,15,1,86,69,60,30.45,29.97,26,4,26,0.00
2013-2-1,28,18,8,14,6,0,76,58,47,30.58,30.28,21,2,21,0.00
2013-2-2,42,33,28,28,22,13,91,63,52,30.29,30.10,22,3,22,0.00
2013-2-3,33,30,26,29,23,17,93,75,57,30.25,30.05,23,2,23,0.18
2013-2-4,55,38,27,37,28,20,84,69,49,30.05,29.82,18,2,18,0.02
2013-2-5,55,39,28,38,30,24,87,73,51,30.18,29.93,17,2,17,0.00
2013-2-6,50,39,26,35,31,24,92,73,54,30.28,30.09,13,2,13,0.00
2013-2-7,51,42,37,45,37,31,94,82,70,30.09,29.89,19,2,19,0.17
2013-2-8,37,34,29,35,30,25,92,84,79,30.42,30.09,16,2,16,0.00
2013-2-9,41,34,29,34,28,24,89,78,68,30.42,30.06,16,2,16,0.11
2013-2-10,56,47,37,52,41,34,96,83,47,30.06,29.61,24,5,24,0.51
2013-2-11,50,42,34,33,28,26,74,60,44,30.19,29.81,33,4,33,0.00
2013-2-12,44,36,25,32,28,23,91,73,55,30.22,29.98,10,0,10,0.00
2013-2-13,54,43,34,34,31,28,79,65,44,29.99,29.83,20,2,20,0.00
2013-2-14,55,45,39,37,34,31,76,64,44,30.09,29.83,19,3,19,0.00
2013-2-15,41,34,27,31,21,16,83,60,42,30.33,30.09,18,2,18,0.00
2013-2-16,35,27,20,17,15,12,77,62,41,30.33,30.22,15,1,15,0.00
2013-2-17,47,35,22,33,23,16,83,64,46,30.24,29.94,18,2,18,0.00
2013-2-18,56,45,33,48,39,24,93,79,69,29.95,29.58,30,6,31,0.21
2013-2-19,32,28,24,24,17,11,73,63,53,30.36,29.94,25,5,25,0.00
2013-2-20,24,21,17,15,12,9,74,67,59,30.49,30.35,12,1,12,0.00
2013-2-21,31,25,20,29,21,14,95,85,74,30.40,29.87,18,2,18,0.00
2013-2-22,34,31,23,33,27,18,96,86,71,30.13,29.85,16,2,16,0.16
2013-2-23,34,25,18,23,19,15,95,78,62,30.12,30.04,10,1,10,0.32
2013-2-24,43,32,18,29,24,16,91,74,54,30.18,30.08,10,1,10,0.20
2013-2-25,44,37,30,33,30,26,91,76,62,30.11,29.66,21,3,21,0.25
2013-2-26,39,35,32,38,33,31,100,94,91,29.71,29.40,24,3,24,0.79
2013-2-27,34,32,31,32,30,27,94,91,86,29.94,29.71,20,3,20,0.05
2013-2-28,33,32,30,29,28,27,93,87,81,30.16,29.93,17,3,17,0.00
2013-3-1,32,30,28,29,27,23,93,89,83,30.25,30.12,12,2,12,0.04
2013-3-2,33,28,23,23,20,17,87,74,60,30.31,30.24,18,2,18,0.01
2013-3-3,40,30,17,26,20,14,90,69,45,30.28,30.08,9,1,9,0.00
2013-3-4,52,42,34,41,32,26,82,69,56,30.08,29.79,19,3,19,0.02
2013-3-5,42,34,30,34,29,23,94,83,69,30.18,29.82,33,5,33,0.14
2013-3-6,35,31,27,26,24,22,82,74,65,30.41,30.18,19,3,22,0.01
2013-3-7,45,33,22,31,26,19,91,76,56,30.48,30.35,12,1,12,0.00
2013-3-8,53,41,29,36,31,26,88,69,50,30.47,30.23,15,2,15,0.00
2013-3-9,67,51,39,45,39,32,90,63,43,30.23,29.82,20,3,20,0.44
2013-3-10,60,52,45,52,48,42,96,88,54,29.82,29.67,15,2,21,1.19
2013-3-11,45,35,32,42,31,26,91,84,72,30.04,29.75,18,3,18,0.01
2013-3-12,49,37,28,30,26,22,83,67,45,30.26,30.02,24,4,24,0.00
2013-3-13,40,32,27,25,21,18,86,63,47,30.47,30.25,21,3,21,0.00
2013-3-14,50,38,26,35,27,20,81,66,50,30.45,30.13,18,2,18,0.02
2013-3-15,70,52,32,51,41,29,90,69,43,30.13,29.67,11,1,11,0.00
2013-3-16,66,47,38,49,40,34,90,77,53,30.10,29.64,18,2,22,0.09
2013-3-17,38,35,33,35,31,28,95,87,80,30.15,29.82,15,3,15,1.21
2013-3-18,49,40,36,38,34,24,96,80,53,30.07,29.73,20,3,20,0.06
2013-3-19,45,37,29,24,20,17,71,53,33,30.26,30.06,17,2,17,0.00
2013-3-20,36,30,26,29,19,13,84,62,47,30.34,30.17,23,3,23,0.00
2013-3-21,36,28,20,20,15,12,70,59,48,30.18,30.04,11,1,11,0.00
2013-3-22,42,35,31,27,24,20,72,64,52,30.10,30.02,10,1,10,0.00
2013-3-23,53,43,36,36,29,25,77,58,46,30.09,29.86,16,2,17,0.02
2013-3-24,42,32,30,35,30,29,95,93,77,29.91,29.61,17,2,18,0.11
2013-3-25,34,31,28,31,28,24,95,88,77,30.24,29.87,17,2,17,0.29
2013-3-26,39,33,27,27,25,23,86,73,57,30.41,30.24,15,2,16,0.36
2013-3-27,44,34,22,29,25,20,92,72,54,30.45,30.34,9,0,9,0.00
2013-3-28,56,45,36,40,33,25,73,63,52,30.40,30.26,12,2,12,0.00
2013-3-29,61,51,43,47,43,38,85,72,59,30.28,30.20,13,1,13,0.00
2013-3-30,53,47,43,47,43,39,94,87,70,30.23,29.94,16,2,16,0.18
2013-3-31,67,55,46,50,45,35,96,73,39,29.97,29.86,22,2,22,0.00
2013-4-1,51,42,36,36,27,21,72,55,39,30.28,29.97,16,3,17,0.00
2013-4-2,47,38,28,25,21,17,76,52,35,30.40,30.28,9,1,11,0.00
2013-4-3,52,42,30,29,26,22,73,53,39,30.44,30.28,14,1,15,0.00
2013-4-4,59,46,30,32,28,24,79,51,31,30.28,30.06,12,1,13,0.00
2013-4-5,66,52,40,40,35,30,72,54,34,30.21,30.05,10,1,10,0.00
2013-4-6,73,63,52,47,42,38,62,48,34,30.05,29.72,27,5,28,0.00
2013-4-7,78,66,54,60,52,46,86,61,40,29.93,29.75,20,2,20,0.04
2013-4-8,78,69,61,62,58,54,84,70,55,29.88,29.72,14,4,21,0.01
2013-4-9,79,70,64,65,61,58,80,73,62,29.88,29.80,27,4,27,0.00
2013-4-10,81,68,58,68,63,57,96,84,63,29.85,29.57,40,2,40,1.19
2013-4-11,59,46,40,58,41,30,96,83,67,29.79,29.65,16,3,21,0.08
2013-4-12,44,41,37,34,32,30,77,70,65,30.05,29.76,15,2,19,0.00
2013-4-13,61,48,34,43,36,30,88,65,45,30.11,29.91,16,2,16,0.00
2013-4-14,78,63,49,58,49,42,76,62,38,29.92,29.61,30,4,30,0.00
2013-4-15,69,61,52,62,56,49,96,83,70,29.92,29.73,19,2,21,0.52
2013-4-16,53,46,44,50,44,42,95,93,88,30.18,29.86,20,2,20,0.60
2013-4-17,84,64,48,70,58,46,97,82,58,30.15,29.66,20,3,23,0.00
2013-4-18,75,59,41,67,55,33,99,86,73,29.81,29.55,23,4,23,2.36
2013-4-19,51,43,37,33,30,27,74,60,44,30.10,29.79,23,4,23,0.00
2013-4-20,55,44,31,34,30,27,90,60,36,30.37,30.10,11,1,11,0.00
2013-4-21,63,52,42,45,38,32,72,60,48,30.45,30.27,15,2,15,0.00
2013-4-22,71,59,44,49,43,36,76,55,39,30.29,29.98,18,2,18,0.00
2013-4-23,63,52,39,56,47,37,95,85,60,30.07,29.90,13,1,14,0.75
2013-4-24,53,43,36,37,34,30,94,74,42,30.29,30.03,12,2,19,0.02
2013-4-25,63,51,38,39,35,32,81,56,39,30.39,30.26,14,1,14,0.00
2013-4-26,59,53,49,48,44,38,82,71,57,30.40,30.27,21,1,21,0.00
2013-4-27,53,51,48,52,49,45,97,94,81,30.31,29.95,11,0,11,0.50
2013-4-28,56,53,50,52,50,47,97,90,81,29.99,29.92,11,1,11,0.02
2013-4-29,79,64,47,64,56,46,96,78,57,29.96,29.78,16,2,16,0.00
2013-4-30,87,74,62,65,60,56,87,65,35,29.94,29.79,18,2,18,0.00
2013-5-1,84,72,57,64,59,54,92,64,42,30.08,29.94,13,1,13,0.00
2013-5-2,70,59,44,61,54,42,94,83,65,30.19,30.06,16,1,16,0.15
2013-5-3,44,41,40,42,40,38,96,95,94,30.13,29.85,11,1,11,1.84
2013-5-4,50,44,39,44,41,38,96,90,76,30.04,29.87,7,0,7,0.03
2013-5-5,60,52,45,56,50,43,97,94,88,30.03,29.91,15,1,15,0.14
2013-5-6,67,60,53,57,54,51,95,82,66,30.00,29.93,17,1,17,0.00
2013-5-7,78,66,57,60,57,55,94,75,50,30.05,29.98,11,0,11,0.00
2013-5-8,82,67,54,60,56,51,94,70,40,30.06,29.97,13,0,13,0.00
2013-5-9,76,68,63,65,61,59,94,79,62,29.99,29.84,19,1,19,0.10
2013-5-10,64,60,54,61,57,50,93,87,80,30.02,29.84,12,1,12,0.00
2013-5-11,68,58,50,56,46,33,92,67,41,30.18,30.00,20,2,20,0.00
2013-5-12,62,52,38,37,34,31,84,54,37,30.26,30.17,15,1,15,0.00
2013-5-13,75,58,39,48,41,36,92,57,32,30.25,30.03,11,1,11,0.00
2013-5-14,94,76,57,64,56,47,79,52,32,30.03,29.79,20,2,20,0.00
2013-5-15,92,80,69,68,62,54,71,53,40,29.94,29.80,19,2,19,0.00
2013-5-16,82,74,65,69,64,58,85,72,52,29.94,29.84,6,1,14,0.00
2013-5-17,75,69,64,70,64,59,94,83,73,29.97,29.91,4,0,7,0.30
2013-5-18,83,72,63,69,65,62,97,80,60,30.02,29.86,7,0,7,0.00
2013-5-19,91,80,70,76,70,65,88,74,55,29.90,29.69,23,1,23,0.00
2013-5-20,80,72,62,71,66,59,96,83,65,29.90,29.68,27,2,27,0.68
2013-5-21,82,70,62,68,64,61,96,81,62,29.82,29.70,22,1,22,0.41
2013-5-22,76,68,62,63,59,56,93,74,56,29.88,29.66,18,2,18,0.00
2013-5-23,64,61,55,59,55,51,93,81,73,30.25,29.88,19,1,19,0.02
2013-5-24,71,58,46,51,44,38,92,64,38,30.43,30.25,12,1,12,0.00
2013-5-25,69,60,50,57,51,44,91,72,55,30.37,30.14,15,0,15,0.07
2013-5-26,84,70,56,70,60,50,81,71,58,30.21,29.99,16,1,16,0.01
2013-5-27,83,71,65,71,65,62,95,82,67,30.02,29.77,21,2,21,0.62
2013-5-28,85,75,69,72,68,65,94,79,62,29.90,29.79,22,2,22,0.07
2013-5-29,88,78,67,71,67,62,87,68,52,29.95,29.81,20,2,20,0.00
2013-5-30,82,75,65,73,68,63,95,80,67,29.91,29.79,28,2,28,0.19
2013-5-31,80,70,63,73,66,62,97,90,78,29.89,29.72,39,2,39,1.05
2013-6-1,75,67,64,68,65,63,97,92,77,29.89,29.77,11,0,11,0.60
2013-6-4,70,67,63,60,59,58,85,76,69,30.03,30.01,1,0,1,0.02
2013-6-5,82,69,57,65,61,56,96,79,51,30.03,29.86,10,0,10,0.01
2013-6-6,78,69,62,66,61,56,96,78,57,29.88,29.83,13,1,13,0.01
2013-6-7,75,66,59,61,58,56,93,76,58,29.93,29.87,13,1,13,0.01
2013-6-8,81,70,57,60,58,55,96,69,47,29.99,29.91,12,0,12,0.00
2013-6-9,78,68,63,66,62,59,94,82,64,29.95,29.80,19,1,19,0.58
2013-6-10,79,70,62,66,63,61,96,81,61,29.92,29.78,13,1,13,0.03
2013-6-11,92,78,62,75,69,60,96,76,55,29.97,29.84,12,1,12,0.00
2013-6-12,95,85,72,78,73,68,90,69,55,29.95,29.72,22,2,22,0.00
2013-6-13,85,75,67,73,65,60,91,71,49,30.00,29.73,19,2,19,0.00
2013-6-14,84,73,61,65,61,58,91,68,50,30.10,29.95,9,0,9,0.00
2013-6-15,91,76,68,75,67,62,96,74,54,30.10,29.92,17,1,17,0.42
2013-6-16,86,74,67,75,70,66,98,88,67,30.03,29.91,11,0,11,0.17
2013-6-17,86,72,65,76,69,64,98,92,71,29.95,29.85,16,0,16,0.03
2013-6-18,88,74,62,72,65,62,100,76,48,29.98,29.91,11,0,11,0.02
2013-6-19,87,75,64,69,65,62,93,73,52,30.07,29.97,11,0,11,0.02
2013-6-20,92,80,66,72,69,64,95,71,50,30.11,30.03,14,0,14,0.01
2013-6-21,93,83,73,77,73,69,88,71,58,30.10,29.98,14,1,14,0.02
2013-6-22,91,76,68,78,70,64,94,81,59,30.07,29.99,26,1,26,0.02
2013-6-23,90,74,67,77,68,64,97,84,62,30.06,29.93,33,1,33,0.01
2013-6-24,94,80,67,77,72,66,97,78,53,30.08,29.92,14,1,15,0.01
2013-6-25,94,84,76,78,74,71,85,72,57,29.96,29.77,18,2,18,0.01
2013-6-26,93,79,73,80,74,70,96,84,63,29.85,29.71,21,1,21,0.01
2013-6-27,94,82,72,75,72,69,95,74,51,29.89,29.76,16,1,16,0.00
2013-6-28,88,80,73,73,68,61,90,67,44,29.85,29.69,16,1,16,0.01
2013-6-29,80,72,63,67,63,60,94,76,60,29.74,29.65,24,1,24,0.01
2013-6-30,75,68,64,66,63,60,93,84,70,29.93,29.74,16,2,16,0.00
2013-7-1,79,71,64,64,58,53,90,63,51,29.99,29.91,18,2,18,0.00
2013-7-2,70,63,60,61,59,56,96,87,61,30.06,29.95,15,1,15,0.01
2013-7-3,83,70,61,66,62,60,97,78,53,30.10,30.01,7,0,7,0.00
2013-7-4,86,74,62,67,63,59,92,68,50,30.10,30.00,7,0,7,0.04
2013-7-5,86,76,66,70,67,63,95,75,50,30.08,29.99,11,0,12,0.00
2013-7-6,90,77,69,72,68,62,92,75,51,30.05,29.95,11,0,17,0.03
2013-7-7,93,80,67,74,70,64,91,72,51,30.05,29.98,13,1,13,0.00
2013-7-8,94,84,75,77,73,69,83,71,54,30.09,29.99,12,1,14,0.00
2013-7-9,95,86,79,79,75,72,81,70,58,30.04,29.91,12,1,12,0.00
2013-7-10,88,80,72,78,73,68,94,80,65,29.99,29.87,18,1,18,0.43
2013-7-11,83,75,67,68,64,61,89,69,51,30.07,29.99,16,1,16,0.00
2013-7-12,87,74,63,64,61,56,91,67,40,30.13,30.04,6,0,10,0.00
2013-7-13,86,74,60,67,63,58,94,69,50,30.11,30.02,7,0,10,0.00
2013-7-14,90,78,66,73,68,63,96,75,55,30.16,30.05,13,0,13,0.25
2013-7-15,92,80,72,78,74,71,98,82,59,30.23,30.13,7,0,11,0.04
2013-7-16,94,83,75,75,74,72,92,73,53,30.30,30.21,7,0,7,0.00
2013-7-17,93,83,74,79,74,71,94,77,58,30.32,30.18,15,0,15,0.02
2013-7-18,93,84,74,80,75,72,93,76,58,30.21,30.01,6,0,6,0.05
2013-7-19,96,85,76,78,74,71,86,70,51,30.01,29.85,14,1,14,0.00
2013-7-20,91,82,74,78,73,69,84,75,63,29.92,29.80,12,1,12,0.00
2013-7-21,82,77,73,74,71,69,89,82,69,29.94,29.84,6,0,6,0.00
2013-7-22,92,80,70,75,72,68,96,78,56,29.87,29.76,11,0,11,0.00
2013-7-23,90,82,73,76,72,65,86,73,56,29.91,29.72,12,1,13,0.00
2013-7-24,79,72,65,66,59,54,86,66,49,30.04,29.91,14,1,14,0.00
2013-7-25,82,71,59,63,59,56,95,69,49,30.13,30.04,11,0,11,0.00
2013-7-26,74,71,69,69,64,59,93,80,68,30.08,29.95,11,0,12,0.05
2013-7-27,75,68,58,67,58,52,95,73,52,30.02,29.96,16,1,16,0.00
2013-7-28,81,67,52,59,54,50,94,67,41,30.07,30.00,11,1,11,0.00
2013-7-29,78,69,57,66,61,55,95,78,58,30.17,30.06,6,0,9,0.00
2013-7-30,77,70,64,71,67,63,97,90,75,30.12,30.00,10,0,10,1.28
2013-7-31,80,73,67,73,69,65,98,90,73,30.05,29.99,14,0,14,0.00
2013-8-1,87,75,64,70,65,59,97,74,41,30.09,29.98,9,0,10,0.00
2013-8-2,82,74,69,72,68,62,97,83,68,30.00,29.92,13,0,13,0.16
2013-8-3,84,75,69,73,69,63,98,83,65,30.12,29.93,10,1,12,0.04
2013-8-4,80,72,62,63,62,59,93,71,50,30.18,30.08,7,0,7,0.02
2013-8-5,74,71,69,68,65,61,94,81,73,30.09,29.88,15,0,17,0.01
2013-8-6,90,78,70,74,72,68,97,82,59,29.93,29.83,10,0,11,0.00
2013-8-7,90,80,73,75,72,69,95,79,56,29.91,29.80,14,1,14,0.00
2013-8-8,79,75,72,75,72,69,95,91,84,29.97,29.88,7,0,8,0.00
2013-8-9,80,74,68,71,68,66,97,83,69,30.07,29.95,9,0,9,0.00
2013-8-10,84,75,67,70,66,62,95,76,52,30.15,30.07,13,1,13,0.00
2013-8-11,87,74,60,64,62,58,96,69,41,30.15,30.04,9,0,10,0.00
2013-8-12,79,74,70,74,69,63,96,84,71,30.07,29.91,7,0,7,0.01
2013-8-13,78,71,65,69,64,53,96,80,66,30.14,29.96,15,1,15,0.01
2013-8-14,73,64,53,57,54,51,94,71,52,30.22,30.14,12,1,13,0.02
2013-8-15,75,65,55,58,55,53,95,73,53,30.19,30.08,12,0,12,0.00
2013-8-16,76,66,56,60,57,54,95,75,55,30.17,30.10,13,0,13,0.00
2013-8-17,80,69,57,64,60,55,94,75,56,30.20,30.11,11,1,11,0.00
2013-8-18,84,72,64,67,64,61,89,75,56,30.19,30.08,11,0,11,0.00
2013-8-19,87,75,63,69,65,61,96,75,53,30.14,30.02,7,0,7,0.00
2013-8-20,90,77,65,71,68,64,95,74,49,30.12,30.02,7,0,7,0.00
2013-8-21,92,79,68,71,69,66,94,72,50,30.12,30.02,10,0,10,0.00
2013-8-22,90,81,73,75,72,68,89,74,60,30.10,30.00,10,0,10,0.00
2013-8-23,89,80,73,75,72,69,93,77,57,30.10,30.03,13,0,13,0.00
2013-8-24,92,80,68,73,69,66,95,73,51,30.20,30.09,10,0,10,0.00
2013-8-25,94,81,66,74,68,64,92,68,42,30.26,30.15,10,0,10,0.00
2013-8-26,96,84,75,76,74,69,93,73,43,30.20,30.05,10,1,10,0.00
2013-8-27,95,84,75,75,72,70,87,69,48,30.08,29.97,11,0,11,0.00
2013-8-28,96,83,71,73,70,68,89,66,44,30.03,29.95,11,0,11,0.00
2013-8-29,97,85,73,76,73,69,89,69,49,30.03,29.93,11,0,11,0.00
2013-8-30,100,86,75,80,75,72,90,71,47,29.95,29.81,12,0,12,0.01
2013-8-31,101,87,75,77,74,70,94,69,41,29.83,29.69,25,1,25,0.07
2013-9-1,75,75,75,72,72,72,92,92,92,29.76,29.76,0,0,0,0.00
2013-9-7,94,87,75,72,69,67,92,56,44,30.02,29.76,10,1,10,0.14
2013-9-8,86,78,71,76,71,67,97,81,68,30.03,29.89,10,0,10,0.00
2013-9-9,99,85,74,76,73,70,91,70,46,29.97,29.88,11,0,11,0.00
2013-9-10,98,85,75,74,70,66,85,63,40,30.08,29.96,11,0,11,0.00
2013-9-11,97,84,71,73,69,66,88,64,44,30.13,30.01,11,0,11,0.00
2013-9-12,85,77,68,71,65,53,88,67,50,30.09,29.97,13,1,13,0.00
2013-9-13,74,65,56,59,52,46,86,65,45,30.16,30.07,14,1,14,0.00
2013-9-14,76,63,50,50,48,42,86,60,33,30.19,30.05,9,0,9,0.00
2013-9-15,82,69,57,65,57,48,92,66,50,30.11,29.98,11,0,11,0.00
2013-9-16,72,64,59,64,58,54,93,81,63,30.29,30.10,14,1,14,0.00
2013-9-17,71,64,58,65,59,54,93,86,78,30.26,30.08,6,0,6,0.00
2013-9-18,87,73,64,75,68,62,97,86,64,30.09,29.95,11,0,11,0.00
2013-9-19,91,80,73,75,72,69,91,77,56,29.99,29.84,15,1,15,0.00
2013-9-20,79,68,59,72,65,54,97,91,75,29.93,29.88,12,0,14,0.00
2013-9-21,71,60,51,56,53,50,96,79,56,29.99,29.91,14,1,14,0.00
2013-9-22,76,60,48,57,53,47,97,77,50,30.04,29.94,10,0,10,0.00
2013-9-23,77,64,52,58,53,50,92,71,50,30.05,29.93,11,0,11,0.00
2013-9-24,82,69,57,67,60,52,88,75,57,29.97,29.78,9,0,9,0.00
2013-9-25,82,71,65,69,65,62,94,81,58,29.88,29.78,10,0,10,0.00
2013-9-26,85,72,61,68,63,60,96,76,53,30.01,29.86,9,0,9,0.00
2013-9-27,84,72,61,67,61,57,92,69,47,30.11,30.00,13,0,13,0.00
2013-9-28,84,73,65,68,63,56,90,70,56,30.05,29.94,21,1,21,0.00
2013-9-29,75,64,54,68,55,50,94,76,48,30.09,29.98,14,1,14,0.00
2013-9-30,79,64,50,65,58,48,96,82,60,30.00,29.89,13,0,13,0.00
2013-10-1,82,70,63,72,67,62,96,88,70,30.03,29.94,11,0,11,0.00
2013-10-2,85,73,67,73,69,66,98,87,62,30.07,29.94,11,0,11,0.00
2013-10-3,85,75,68,76,70,66,94,83,64,29.97,29.86,12,1,15,0.00
2013-10-4,87,77,69,73,70,67,96,81,60,29.98,29.89,19,1,19,0.00
2013-10-5,77,69,55,71,66,52,95,90,73,29.95,29.84,15,1,15,0.00
2013-10-6,57,52,48,52,46,41,94,78,60,29.93,29.86,19,2,19,0.00
2013-10-7,70,56,50,52,49,46,92,77,51,30.16,29.92,12,1,12,0.00
2013-10-8,76,60,46,55,50,45,96,73,47,30.22,30.13,10,0,10,0.00
2013-10-9,76,60,45,57,51,43,95,74,51,30.20,30.09,7,0,7,0.00
2013-10-10,80,65,54,65,58,53,97,80,55,30.17,30.01,10,0,10,0.00
2013-10-11,80,66,55,64,58,54,96,78,48,30.05,29.90,15,1,15,0.00
2013-10-12,76,66,55,65,58,46,95,77,56,30.22,29.94,6,0,11,0.00
2013-10-13,72,58,45,47,44,40,93,63,36,30.40,30.22,11,1,11,0.00
2013-10-14,67,57,48,55,46,38,77,65,55,30.36,30.06,7,0,7,0.00
2013-10-15,68,62,55,64,58,50,96,88,77,30.07,29.89,12,1,12,0.00
2013-10-16,58,51,44,50,44,41,92,77,63,30.07,29.98,14,1,14,0.00
2013-10-17,64,52,45,48,45,43,94,78,48,30.03,29.93,16,0,16,0.00
2013-10-18,60,52,44,46,43,39,90,72,51,30.09,29.96,12,1,12,0.00
2013-10-19,57,46,40,41,39,38,94,78,50,30.07,29.97,16,1,16,0.00
2013-10-20,71,57,46,49,44,39,75,62,41,29.99,29.86,19,2,19,0.00
2013-10-21,56,49,37,46,41,33,88,73,53,30.10,29.92,14,1,14,0.00
2013-10-22,60,45,35,47,39,33,92,81,60,30.09,29.81,19,1,19,0.00
2013-10-23,50,42,36,37,34,30,89,76,52,30.18,30.02,16,1,16,0.00
2013-10-24,47,40,29,37,31,26,92,72,52,30.46,30.15,20,1,20,0.00
2013-10-25,55,40,27,34,30,25,93,69,41,30.56,30.24,10,0,10,0.06
2013-10-26,64,50,40,47,36,30,70,60,47,30.24,30.03,17,2,20,0.03
2013-10-27,61,44,31,37,33,28,95,69,37,30.17,30.05,10,0,10,0.13
2013-10-28,68,50,35,49,42,32,94,73,48,30.26,30.08,7,0,7,0.09
2013-10-29,57,52,47,56,48,39,97,85,66,30.27,30.07,15,0,15,0.03
2013-10-30,71,66,57,68,63,56,98,91,81,30.08,29.83,13,1,13,0.02
2013-10-31,65,60,47,64,58,45,97,95,88,29.83,29.39,18,1,18,0.00
2013-11-1,62,52,46,48,45,41,98,78,57,29.89,29.65,16,2,16,0.00
2013-11-2,54,47,38,42,40,35,91,78,59,30.23,29.86,15,1,15,0.00
2013-11-3,58,45,32,42,36,31,96,73,48,30.34,30.17,13,0,13,0.00
2013-11-4,60,52,46,48,43,37,77,71,62,30.25,30.12,16,1,16,0.00
2013-11-5,59,55,51,54,50,46,95,84,74,30.28,29.99,17,1,17,0.00
2013-11-6,58,48,37,56,45,34,96,90,81,30.32,29.91,17,2,17,0.00
2013-11-7,55,41,31,41,35,29,95,79,54,30.43,30.30,14,1,14,0.00
2013-11-8,58,45,29,38,34,27,95,70,43,30.42,30.10,16,1,18,0.23
2013-11-9,67,54,46,46,41,37,78,62,43,30.26,30.07,16,2,16,0.11
2013-11-10,54,46,39,40,34,32,83,66,45,30.47,30.26,12,0,12,0.05
2013-11-11,65,47,32,50,39,29,91,74,56,30.54,30.13,18,2,18,0.02
2013-11-12,34,28,22,29,20,17,90,71,54,30.83,30.53,20,2,20,0.05
2013-11-13,46,33,19,22,19,16,89,61,35,30.76,30.34,12,1,12,0.01
2013-11-14,59,44,28,30,24,19,69,47,27,30.34,30.06,21,2,21,0.01
2013-11-15,59,50,46,43,36,28,85,59,45,30.09,29.95,18,1,18,0.00
2013-11-16,64,57,47,60,53,43,94,86,80,29.95,29.63,21,4,23,0.01
2013-11-17,76,66,51,66,54,36,95,71,33,29.96,29.38,33,5,33,0.00
2013-11-18,46,38,34,32,30,29,83,75,57,30.34,30.28,0,0,0,0.00
2013-11-19,47,39,31,32,29,27,88,69,50,30.40,30.25,7,0,7,0.15
2013-11-20,49,41,34,42,34,28,88,78,71,30.26,30.07,14,1,14,0.00
2013-11-21,50,49,48,49,46,41,100,89,72,30.23,30.10,13,1,13,0.01
2013-11-22,49,38,33,48,35,29,97,91,84,30.58,30.22,15,2,15,0.01
2013-11-23,33,27,18,29,19,11,89,72,57,30.80,30.56,17,2,17,0.32
2013-11-24,30,22,14,14,11,8,83,63,42,30.83,30.50,10,1,10,0.01
2013-11-25,36,32,26,25,19,14,67,60,50,30.50,30.21,12,1,12,0.00
2013-11-26,38,32,23,29,23,12,82,70,59,30.32,30.13,23,2,23,0.05
2013-11-27,28,22,17,14,11,9,74,63,51,30.44,30.30,17,2,17,0.00
2013-11-28,46,32,22,28,20,13,72,61,48,30.55,30.30,19,2,19,0.00
2013-11-29,45,34,21,30,24,17,86,69,53,30.65,30.41,10,0,10,0.00
2013-11-30,58,43,28,42,34,25,90,72,53,30.41,30.12,10,1,11,0.00
2013-12-1,56,44,33,42,37,31,94,76,58,30.17,29.92,6,0,6,0.00
2013-12-2,57,46,39,47,40,34,92,80,68,29.92,29.70,9,0,9,0.00
2013-12-3,59,52,46,53,49,44,96,91,80,29.73,29.64,16,2,16,0.00
2013-12-4,67,54,40,56,49,33,97,84,65,29.90,29.53,20,2,20,0.00
2013-12-5,39,27,21,33,20,14,89,76,65,30.36,29.90,19,2,19,0.00
2013-12-6,22,19,15,18,11,5,87,70,62,30.67,30.33,15,2,15,0.00
2013-12-7,23,17,10,11,8,5,77,67,55,30.79,30.52,11,1,11,0.00
2013-12-8,27,23,18,24,20,11,96,87,65,30.53,30.07,11,1,11,0.00
2013-12-9,27,23,20,24,16,12,89,75,67,30.40,30.15,17,2,17,0.00
2013-12-10,36,24,15,20,15,9,83,68,50,30.38,30.30,18,1,18,0.03
2013-12-11,32,23,12,23,14,0,81,68,52,30.73,30.35,18,2,18,0.00
2013-12-12,38,24,10,18,11,0,76,59,43,30.72,30.32,10,1,14,0.00
2013-12-13,34,29,20,31,24,15,93,81,62,30.32,29.99,13,1,13,0.28
2013-12-14,33,30,26,31,29,23,95,93,89,30.20,29.88,18,2,18,0.08
2013-12-15,36,28,22,29,24,18,92,84,73,30.26,30.07,15,1,15,0.13
2013-12-16,34,29,25,31,26,23,95,89,83,30.20,30.03,13,0,13,0.08
2013-12-17,41,32,25,31,26,21,92,79,65,30.33,30.18,8,1,17,0.08
2013-12-18,51,38,24,36,27,18,84,67,47,30.32,29.96,16,2,16,0.01
2013-12-19,59,51,42,50,45,36,84,80,71,29.97,29.79,19,3,19,0.00
2013-12-20,69,50,35,60,46,32,92,86,70,29.90,29.69,20,3,20,0.02
2013-12-21,35,32,31,33,31,30,95,94,91,29.88,29.61,14,2,14,0.72
2013-12-22,33,31,26,31,29,21,95,91,83,30.34,29.69,17,2,17,0.03
2013-12-23,26,20,10,22,14,3,92,79,71,30.67,30.33,18,3,18,0.00
2013-12-24,22,15,6,14,5,-1,78,64,46,30.71,30.41,21,2,21,0.00
2013-12-25,35,30,22,30,24,14,85,78,69,30.43,30.28,12,2,15,0.00
2013-12-26,50,37,25,31,26,23,93,69,40,30.42,30.28,15,1,15,0.01
2013-12-27,56,42,29,35,30,24,84,65,43,30.43,30.26,12,1,12,0.00
2013-12-28,59,46,36,36,32,28,74,58,38,30.27,29.93,11,2,18,0.00
2013-12-29,43,29,16,32,22,8,85,75,65,30.34,29.89,19,3,19,0.00
2013-12-30,29,19,9,15,6,0,73,58,42,30.44,30.28,10,1,10,0.00
2013-12-31,42,33,23,26,21,15,75,61,51,30.47,30.20,12,2,14,0.00
2014-1-1,46,35,23,32,26,20,91,72,51,30.20,30.05,14,2,14,0.00
2014-1-2,22,16,8,20,12,4,92,83,73,30.57,30.11,10,2,19,0.01